Time,TemperatureF,DewpointF,PressureIn,WindDirection,WindDirectionDegrees,WindSpeedMPH,WindSpeedGustMPH,Humidity,HourlyPrecipIn,Conditions,Clouds,dailyrainin,SoftwareType,DateUTC
2013-10-19 00:21:00,74.0,28.0,29.78,NNE,23,8.0,11.0,18,0.00,,,0.00,,2013-10-19 07:21:00,
2013-10-19 00:32:00,74.0,28.0,29.78,NNE,23,8.0,11.0,18,0.00,,,0.00,,2013-10-19 07:32:00,
2013-10-19 01:52:00,75.0,26.0,29.78,WNW,295,4.0,6.0,16,0.00,,,0.00,,2013-10-19 08:52:00,
2013-10-19 04:12:00,73.0,23.0,29.76,NNE,12,10.0,13.0,15,0.00,,,0.00,,2013-10-19 11:12:00,
2013-10-19 04:22:00,73.0,23.0,29.76,NNE,12,10.0,13.0,15,0.00,,,0.00,,2013-10-19 11:22:00,
2013-10-19 04:52:00,73.0,21.0,29.76,NNE,14,5.0,9.0,14,0.00,,,0.00,,2013-10-19 11:52:00,
2013-10-19 05:11:00,74.0,22.0,29.76,NNE,12,4.0,7.0,14,0.00,,,0.00,,2013-10-19 12:11:00,
2013-10-19 05:21:00,74.0,22.0,29.76,NNE,12,4.0,7.0,14,0.00,,,0.00,,2013-10-19 12:21:00,
2013-10-19 06:22:00,73.0,21.0,29.77,North,358,4.0,10.0,14,0.00,,,0.00,,2013-10-19 13:22:00,
2013-10-19 08:55:00,74.0,23.0,29.79,ENE,57,16.0,22.0,15,0.00,,,0.00,,2013-10-19 15:55:00,
2013-10-19 10:52:00,77.0,26.0,29.80,East,83,4.0,9.0,15,0.00,,,0.00,,2013-10-19 17:52:00,
2013-10-19 11:12:00,76.0,33.0,29.80,ESE,108,8.0,13.0,21,0.00,,,0.00,,2013-10-19 18:12:00,
2013-10-19 11:21:00,76.0,33.0,29.80,ESE,108,8.0,13.0,21,0.00,,,0.00,,2013-10-19 18:21:00,
2013-10-19 11:32:00,76.0,33.0,29.80,ESE,108,8.0,13.0,21,0.00,,,0.00,,2013-10-19 18:32:00,
2013-10-19 11:52:00,77.0,35.0,29.80,SE,141,7.0,11.0,22,0.00,,,0.00,,2013-10-19 18:52:00,
2013-10-19 12:22:00,77.0,36.0,29.80,South,174,2.0,8.0,23,0.00,,,0.00,,2013-10-19 19:22:00,
2013-10-19 12:52:00,77.0,36.0,29.80,South,174,2.0,8.0,23,0.00,,,0.00,,2013-10-19 19:52:00,
2013-10-19 13:22:00,77.0,51.0,29.78,North,0,0.0,5.0,40,0.00,,,0.00,,2013-10-19 20:22:00,
2013-10-19 13:32:00,77.0,51.0,29.78,North,0,0.0,5.0,40,0.00,,,0.00,,2013-10-19 20:32:00,
2013-10-19 13:52:00,79.0,48.0,29.78,North,0,0.0,4.0,34,0.00,,,0.00,,2013-10-19 20:52:00,
2013-10-19 14:21:00,77.0,46.0,29.76,North,0,0.0,5.0,33,0.00,,,0.00,,2013-10-19 21:21:00,
2013-10-19 14:54:00,75.0,48.0,29.76,SSW,193,4.0,10.0,38,0.00,,,0.00,,2013-10-19 21:54:00,
2013-10-19 15:04:00,75.0,48.0,29.76,SSW,193,4.0,10.0,38,0.00,,,0.00,,2013-10-19 22:04:00,
2013-10-19 15:14:00,75.0,48.0,29.76,SSW,193,4.0,10.0,38,0.00,,,0.00,,2013-10-19 22:14:00,
2013-10-19 15:24:00,75.0,48.0,29.76,SSW,193,4.0,10.0,38,0.00,,,0.00,,2013-10-19 22:24:00,
2013-10-19 15:43:00,77.0,41.0,29.74,WSW,251,8.0,11.0,28,0.00,,,0.00,,2013-10-19 22:43:00,
2013-10-19 15:53:00,77.0,41.0,29.74,WSW,251,8.0,11.0,28,0.00,,,0.00,,2013-10-19 22:53:00,
2013-10-19 16:03:00,77.0,41.0,29.74,WSW,251,8.0,11.0,28,0.00,,,0.00,,2013-10-19 23:03:00,
2013-10-19 21:02:00,-999.0,-99.9,29.75,West,278,10.0,13.0,-999,-99.99,,,-99.99,,2013-10-20 04:02:00,
2013-10-19 21:24:00,69.0,35.0,29.75,WNW,296,11.0,14.0,28,0.00,,,0.00,,2013-10-20 04:24:00,
2013-10-19 21:54:00,68.0,34.0,29.75,North,0,0.0,2.0,28,0.00,,,0.00,,2013-10-20 04:54:00,